DECAYED

STARLINK-1910, 46748 (Decayed)

Orbit data source: Space-Track

STARLINK-1910, 46748 was a payload satellite owned by SpaceX/Seattle (US) in LEO that was launched on Sat, 24 Oct 2020 UTC via an FALCON 9 launch vehicle from the Air Force Eastern Test Range (AFETR). Payload-class satellites include a variety of spacecraft equipped with specific instruments for various scientific and technological missions. These include communications satellites like Starlink; space stations such as the ISS; scientific satellites like the Hubble; Earth observation satellites from companies like Planet Labs, Umbra, and HawkEye 360; GPS; miniature CubeSats for education and research; and military/defense satellites.

Not visible in the next 10 days
Identifier
46748, 2020-074K
Orbit
Decayed
Country
Flag of USUS
Related business
Manufacturer
SpaceX/Seattle
Mission
Decayed Commercial Communications
Bus & Motor
STARLINK, Unknown motor
Mass
260 kg wet, ~248 kg dry
Launch date (UTC)
2020-10-24 (5 years ago)
Launch vehicle
FALCON 9
Launch site
Air Force Eastern Test Range (AFETR)
Object type
Payload
Rocket body
Debris
Shape & HBR
Box + 1 Pan, 10.1 m
Radar Cross Section
13.562 m², Large (>1 m²)

Expand to show TLE details & history
Last TLE update: 10 months ago

TLE from 10 months ago
0 STARLINK-1910
1 46748U 20074K   25034.22160043  .10950401  12518-4  15314-2 0  9991
2 46748  53.0009 269.1038 0021670  20.6189  80.7891 16.33376938237126
Epoch: 2025-02-03T05:19Z
TLE epoch observation values (Epoch: 2025-02-03T05:19:06.277Z)
Latitude
51.61804°
Longitude
164.62124°
Altitude
187.358 km
Speed
7.802 km/s
True Right ascension
01h 12m 10s
True Declination
51° 26' 09"
Sunlit
Object was in daylight at epoch
Visualization orbit readout
Latitude
Unknown
Longitude
Unknown
Altitude
Unknown
Speed
Unknown
Apparent Right ascension
Unknown
Apparent Declination
Unknown
Sunlit
N/A
Visualization observer readout
Local Sidereal Time
13:03:59
Azimuth
Unknown
Elevation
Unknown
Doppler factor
Unknown
Orbital elements
Apogee altitude
197.994 km
Perigee altitude
169.555 km
Semi-major axis
6,561.912 km
Eccentricity
0.00217
Inclination
53.0009°
RAAN
269.1038°
Arg. of periapsis
20.6189°
True anomaly
81.03432°
Mean anomaly
80.7891°
Eccentric anomaly
80.9117°
Mean motion
4.08317 °/min
Orbital period
88.17 mins
BSTAR
0.0015314
Loading maneuver chart data...
Computing Atmospheric mass density...

Documentation

Showing up to 5 results
|